TimeAKST,TemperatureF,Dew PointF,Humidity,Sea Level PressureIn,VisibilityMPH,Wind Direction,Wind SpeedMPH,Gust SpeedMPH,PrecipitationIn,Events,Conditions,WindDirDegrees,DateUTC
12:52 AM,-16.1,-20.9,79,30.14,10.0,Calm,Calm,-,N/A,,Clear,0,2013-11-27 09:52:00
1:52 AM,-18.0,-23.1,78,30.13,10.0,Calm,Calm,-,N/A,,Clear,0,2013-11-27 10:52:00
2:52 AM,-20.0,-25.1,78,30.12,10.0,Calm,Calm,-,N/A,,Clear,0,2013-11-27 11:52:00
3:52 AM,-20.9,-26.0,77,30.11,10.0,Calm,Calm,-,N/A,,Clear,0,2013-11-27 12:52:00
4:52 AM,-20.0,-25.1,78,30.10,10.0,Calm,Calm,-,N/A,,Clear,0,2013-11-27 13:52:00
5:52 AM,-18.9,-24.0,78,30.09,10.0,Calm,Calm,-,N/A,,Clear,0,2013-11-27 14:52:00
6:52 AM,-16.1,-20.9,79,30.07,10.0,Calm,Calm,-,N/A,,Scattered Clouds,0,2013-11-27 15:52:00
7:52 AM,-14.1,-18.0,82,30.06,10.0,Calm,Calm,-,N/A,,Overcast,0,2013-11-27 16:52:00
8:52 AM,-11.9,-16.1,82,30.06,10.0,Calm,Calm,-,N/A,,Overcast,0,2013-11-27 17:52:00
9:52 AM,-9.9,-15.0,78,30.05,10.0,Calm,Calm,-,N/A,,Overcast,0,2013-11-27 18:52:00
10:52 AM,-9.0,-13.0,83,30.03,10.0,East,3.5,-,N/A,,Overcast,100,2013-11-27 19:52:00
11:52 AM,-8.0,-11.9,83,30.04,10.0,WSW,3.5,-,N/A,,Overcast,240,2013-11-27 20:52:00
12:52 PM,-7.1,-9.9,87,30.03,10.0,Calm,Calm,-,N/A,,Overcast,0,2013-11-27 21:52:00
1:52 PM,-5.1,-9.0,83,30.01,2.0,Calm,Calm,-,N/A,Snow,Light Snow,0,2013-11-27 22:52:00
2:03 PM,-5.8,-9.4,84,29.98,1.8,Calm,Calm,-,N/A,Snow,Light Snow,0,2013-11-27 23:03:00
2:31 PM,-5.8,-9.4,84,29.97,1.5,WSW,3.5,-,N/A,Snow,Light Snow,240,2013-11-27 23:31:00
2:52 PM,-5.1,-9.0,83,30.00,0.8,WSW,3.5,-,N/A,Snow,Light Snow,250,2013-11-27 23:52:00
3:02 PM,-5.8,-9.4,84,29.97,1.2,WSW,3.5,-,N/A,Snow,Light Snow,240,2013-11-28 00:02:00
3:39 PM,-4.0,-7.6,85,29.97,2.0,Calm,Calm,-,N/A,Snow,Light Snow,0,2013-11-28 00:39:00
3:50 PM,-4.0,-7.6,85,29.96,5.0,Calm,Calm,-,N/A,Snow,Light Snow,0,2013-11-28 00:50:00
3:52 PM,-4.0,-8.0,83,30.00,6.0,Calm,Calm,-,N/A,,Overcast,0,2013-11-28 00:52:00
4:52 PM,-4.0,-8.0,83,30.00,6.0,SW,3.5,-,N/A,Snow,Light Snow,230,2013-11-28 01:52:00
5:50 PM,-5.8,-9.4,84,29.96,6.0,Calm,Calm,-,N/A,,Overcast,0,2013-11-28 02:50:00
5:52 PM,-6.0,-9.9,83,30.00,7.0,Calm,Calm,-,N/A,,Overcast,0,2013-11-28 02:52:00
6:03 PM,-7.6,-11.2,84,29.96,9.0,Calm,Calm,-,N/A,,Mostly Cloudy,0,2013-11-28 03:03:00
6:52 PM,-11.0,-15.0,83,30.00,8.0,Calm,Calm,-,N/A,,Overcast,0,2013-11-28 03:52:00
7:52 PM,-8.0,-13.0,79,29.99,9.0,Calm,Calm,-,N/A,,Overcast,0,2013-11-28 04:52:00
8:52 PM,-9.9,-15.0,78,29.98,8.0,Calm,Calm,-,N/A,,Overcast,0,2013-11-28 05:52:00
9:52 PM,-14.1,-18.9,79,29.98,10.0,Calm,Calm,-,N/A,,Overcast,0,2013-11-28 06:52:00
10:52 PM,-17.0,-22.0,78,29.97,5.0,Calm,Calm,-,N/A,,Haze,0,2013-11-28 07:52:00
11:12 PM,-16.6,-22.0,76,29.94,8.0,North,3.5,-,N/A,,Overcast,360,2013-11-28 08:12:00
11:52 PM,-17.0,-22.0,78,29.97,8.0,North,3.5,-,N/A,,Overcast,350,2013-11-28 08:52:00